period_start,C,m1,H,J0,J1,J2,J3,J4,J5,JA,JB,JC,JD,JJ,JK,JN,#
2013-12-31 00:00:13,0.04,3.15,0.00,27.55,28.96,31.67,5.67,29.79,1009.29,2032.36,2397.12,2504.28,2734.82,348.36,315.57,15.02,0000 0000 0000 0000 000000
2013-12-31 00:01:13,0.16,3.15,0.00,27.55,28.97,31.68,5.85,29.83,1009.29,2032.32,2397.02,2504.10,2734.40,350.29,317.10,15.02,0000 0000 0000 0000 000000
2013-12-31 00:02:13,0.14,3.16,0.00,27.54,28.97,31.69,5.74,29.75,1009.29,2032.21,2396.63,2504.03,2734.15,350.25,317.00,15.03,0000 0000 0000 0000 000000
2013-12-31 00:03:14,0.05,3.16,0.00,27.55,28.97,31.68,5.76,30.00,1009.29,2032.13,2396.26,2503.95,2734.04,349.81,316.32,15.03,0000 0000 0000 0000 000000
2013-12-31 00:04:14,0.07,3.16,0.00,27.56,28.97,31.69,5.74,30.00,1009.29,2032.07,2396.08,2503.62,2733.97,349.87,316.64,15.04,0000 0000 0000 0000 000000
2013-12-31 00:05:14,0.09,3.16,0.00,27.57,28.97,31.69,5.79,29.92,1009.29,2032.05,2395.98,2503.24,2733.68,350.18,316.69,15.05,0000 0000 0000 0000 000000
2013-12-31 00:06:14,0.17,3.16,0.00,27.58,28.99,31.68,5.86,29.83,1009.29,2032.08,2395.55,2503.08,2733.26,349.92,316.66,15.05,0000 0000 0000 0000 000000
2013-12-31 00:07:15,0.26,3.16,0.00,27.57,29.00,31.70,5.88,29.79,1009.29,2032.04,2395.20,2503.00,2733.09,349.88,316.72,15.06,0000 0000 0000 0000 000000
2013-12-31 00:08:15,0.08,3.16,0.00,27.58,29.00,31.71,5.87,30.08,1009.29,2032.02,2395.06,2502.80,2732.98,350.30,317.00,15.06,0000 0000 0000 0000 000000
2013-12-31 00:09:15,0.11,3.16,0.00,27.59,29.00,31.71,5.94,30.25,1009.30,2032.01,2394.84,2502.37,2732.68,349.55,316.40,15.07,0000 0000 0000 0000 000000
2013-12-31 00:10:15,0.24,3.16,0.00,27.60,29.00,31.72,5.73,30.00,1009.29,2032.01,2394.37,2502.15,2732.32,349.35,316.45,15.08,0000 0000 0000 0000 000000
2013-12-31 00:11:16,0.24,3.16,0.00,27.58,29.00,31.72,5.78,29.83,1009.29,2032.00,2394.14,2502.05,2732.12,348.77,315.58,15.08,0000 0000 0000 0000 000000
2013-12-31 00:12:16,0.10,3.16,0.00,27.57,29.01,31.71,5.86,30.00,1009.29,2032.00,2394.05,2502.01,2732.04,351.75,318.33,15.09,0000 0000 0000 0000 000000
2013-12-31 00:13:16,0.05,3.16,0.00,27.60,29.02,31.69,5.74,30.00,1009.29,2032.00,2393.81,2501.77,2731.94,349.33,316.11,15.09,0000 0000 0000 0000 000000
2013-12-31 00:14:17,0.19,3.17,0.00,27.60,29.02,31.72,5.67,29.83,1009.29,2032.01,2393.35,2501.31,2731.47,348.90,315.72,15.10,0000 0000 0000 0000 000000
2013-12-31 00:15:17,0.32,3.17,0.00,27.59,29.02,31.75,5.72,30.04,1009.29,2032.00,2393.12,2501.11,2731.18,349.22,316.54,15.11,0000 0000 0000 0000 000000
2013-12-31 00:16:17,0.13,3.17,0.00,27.59,29.02,31.75,5.70,30.00,1009.29,2032.00,2393.02,2501.03,2731.06,349.33,316.12,15.11,0000 0000 0000 0000 000000
2013-12-31 00:17:18,0.08,3.17,0.00,27.60,29.02,31.74,5.82,30.04,1009.29,2032.00,2392.60,2500.96,2730.99,349.70,316.89,15.12,0000 0000 0000 0000 000000
2013-12-31 00:18:18,0.16,3.17,0.00,27.60,29.04,31.72,5.66,30.04,1009.30,2032.00,2392.23,2500.59,2730.65,349.03,315.84,15.12,0000 0000 0000 0000 000000
2013-12-31 00:19:18,0.25,3.17,0.00,27.58,29.04,31.74,5.76,29.96,1009.30,2032.00,2392.07,2500.24,2730.26,349.63,316.40,15.13,0000 0000 0000 0000 000000
2013-12-31 00:20:19,0.19,3.17,0.00,27.62,29.05,31.74,5.81,30.17,1009.29,2032.00,2391.98,2500.08,2730.09,349.64,316.36,15.13,0000 0000 0000 0000 000000
2013-12-31 00:21:19,0.10,3.17,0.00,27.62,29.05,31.74,5.91,29.96,1009.29,2032.00,2391.64,2500.03,2730.03,351.37,317.77,15.14,0000 0000 0000 0000 000000
2013-12-31 00:22:19,0.10,3.17,0.00,27.63,29.05,31.73,5.78,29.92,1009.29,2032.00,2391.25,2499.97,2729.93,350.32,316.98,15.15,0000 0000 0000 0000 000000
2013-12-31 00:23:19,0.16,3.17,0.00,27.64,29.05,31.73,5.85,29.79,1009.29,2032.00,2391.08,2499.58,2729.46,350.89,317.42,15.15,0000 0000 0000 0000 000000
2013-12-31 00:24:20,0.23,3.18,0.00,27.64,29.06,31.78,5.68,29.92,1009.29,2032.00,2390.99,2499.23,2729.16,349.20,315.95,15.16,0000 0000 0000 0000 000000
2013-12-31 00:25:20,0.18,3.18,0.00,27.64,29.07,31.76,5.74,29.75,1009.29,2032.00,2390.70,2499.08,2729.06,350.77,317.13,15.16,0000 0000 0000 0000 000000
2013-12-31 00:26:20,0.12,3.18,0.00,27.64,29.07,31.71,5.83,29.79,1009.28,2032.00,2390.29,2499.03,2728.99,350.90,317.49,15.17,0000 0000 0000 0000 000000
2013-12-31 00:27:20,0.12,3.18,0.00,27.65,29.07,31.73,5.83,29.75,1009.29,2032.00,2390.10,2498.91,2728.65,349.29,315.84,15.18,0000 0000 0000 0000 000000
2013-12-31 00:28:21,0.15,3.18,0.00,27.67,29.07,31.74,5.85,29.75,1009.29,2032.00,2389.97,2498.53,2728.25,350.14,316.97,15.18,0000 0000 0000 0000 000000
2013-12-31 00:29:21,0.23,3.18,0.00,27.66,29.07,31.77,5.87,29.92,1009.29,2032.00,2389.53,2498.22,2728.08,349.86,316.97,15.19,0000 0000 0000 0000 000000
2013-12-31 00:30:21,0.21,3.18,0.00,27.65,29.08,31.78,5.78,30.00,1009.29,2032.00,2389.19,2498.08,2728.02,349.46,316.18,15.19,0000 0000 0000 0000 000000
2013-12-31 00:31:22,0.13,3.18,0.00,27.64,29.09,31.78,5.76,29.96,1009.29,2032.00,2389.07,2497.99,2727.85,349.36,316.10,15.20,0000 0000 0000 0000 000000
2013-12-31 00:32:22,0.11,3.18,0.00,27.65,29.10,31.78,5.67,29.79,1009.29,2032.00,2388.85,2497.80,2727.40,349.35,316.15,15.20,0000 0000 0000 0000 000000
2013-12-31 00:33:22,0.20,3.18,0.00,27.67,29.10,31.78,5.86,29.83,1009.29,2032.00,2388.40,2497.44,2727.15,350.37,316.97,15.21,0000 0000 0000 0000 000000
2013-12-31 00:34:23,0.23,3.19,0.00,27.65,29.10,31.78,5.67,29.79,1009.29,2032.00,2388.14,2497.17,2727.05,349.31,316.03,15.22,0000 0000 0000 0000 000000
2013-12-31 00:35:23,0.15,3.19,0.00,27.68,29.10,31.79,5.88,29.92,1009.29,2032.00,2388.03,2497.06,2726.95,350.39,316.99,15.22,0000 0000 0000 0000 000000
2013-12-31 00:36:23,0.09,3.19,0.00,27.68,29.10,31.79,5.77,29.88,1009.29,2031.99,2387.79,2496.98,2726.52,350.03,316.41,15.23,0000 0000 0000 0000 000000
2013-12-31 00:37:23,0.16,3.19,0.00,27.67,29.11,31.83,5.69,30.29,1009.29,2031.99,2387.33,2496.62,2726.20,348.37,315.49,15.23,0000 0000 0000 0000 000000
2013-12-31 00:38:24,0.27,3.19,0.00,27.67,29.12,31.82,5.69,30.13,1009.29,2031.99,2387.11,2496.23,2726.07,349.60,316.53,15.24,0000 0000 0000 0000 000000
2013-12-31 00:39:24,0.19,3.19,0.00,27.66,29.12,31.83,5.83,29.83,1009.29,2031.98,2386.90,2496.08,2726.01,351.28,317.83,15.25,0000 0000 0000 0000 000000
2013-12-31 00:40:24,0.12,3.19,0.00,27.69,29.12,31.80,5.77,29.79,1009.29,2031.98,2386.44,2496.02,2725.78,349.28,316.29,15.25,0000 0000 0000 0000 000000
2013-12-31 00:41:24,0.16,3.19,0.00,27.70,29.12,31.82,5.78,29.83,1009.29,2031.98,2386.17,2495.98,2725.37,349.76,316.39,15.26,0000 0000 0000 0000 000000
2013-12-31 00:42:25,0.13,3.19,0.00,27.70,29.12,31.83,5.91,29.79,1009.29,2031.97,2386.06,2495.84,2725.14,350.44,316.76,15.26,0000 0000 0000 0000 000000
2013-12-31 00:43:25,0.12,3.19,0.00,27.70,29.13,31.81,5.77,29.79,1009.29,2031.99,2385.96,2495.43,2725.05,349.62,316.17,15.27,0000 0000 0000 0000 000000
2013-12-31 00:44:25,0.18,3.20,0.00,27.72,29.14,31.81,5.86,29.83,1009.29,2031.98,2385.53,2495.16,2724.94,350.30,316.85,15.28,0000 0000 0000 0000 000000
2013-12-31 00:45:26,0.19,3.20,0.00,27.72,29.15,31.82,5.89,29.75,1009.29,2031.95,2385.20,2495.05,2724.55,350.77,317.12,15.28,0000 0000 0000 0000 000000
2013-12-31 00:46:26,0.14,3.20,0.00,27.71,29.15,31.81,5.88,29.75,1009.29,2031.94,2385.06,2495.00,2724.22,349.93,316.29,15.29,0000 0000 0000 0000 000000
2013-12-31 00:47:26,0.09,3.20,0.00,27.73,29.15,31.82,5.61,29.88,1009.29,2031.96,2384.94,2494.93,2724.08,349.51,316.13,15.29,0000 0000 0000 0000 000000
2013-12-31 00:48:27,0.13,3.20,0.00,27.74,29.15,31.83,5.65,29.88,1009.29,2031.95,2384.49,2494.53,2724.01,349.90,316.47,15.30,0000 0000 0000 0000 000000
2013-12-31 00:49:27,0.18,3.20,0.00,27.73,29.15,31.83,5.73,29.92,1009.29,2031.81,2384.18,2494.21,2723.76,348.68,315.44,15.30,0000 0000 0000 0000 000000
2013-12-31 00:50:27,0.11,3.20,0.00,27.72,29.16,31.81,5.82,29.67,1009.29,2031.77,2384.05,2494.07,2723.33,350.92,317.42,15.31,0000 0000 0000 0000 000000
2013-12-31 00:51:27,0.05,3.20,0.00,27.73,29.17,31.82,5.77,29.92,1009.30,2031.70,2383.92,2494.01,2723.12,349.21,315.86,15.32,0000 0000 0000 0000 000000
2013-12-31 00:52:28,0.07,3.20,0.00,27.74,29.17,31.84,5.78,30.00,1009.31,2031.64,2383.46,2493.85,2723.04,350.08,316.59,15.32,0000 0000 0000 0000 000000
2013-12-31 00:53:28,0.14,3.20,0.00,27.74,29.17,31.88,5.74,29.83,1009.30,2031.57,2383.17,2493.46,2722.89,349.27,315.91,15.33,0000 0000 0000 0000 000000
2013-12-31 00:54:28,0.12,3.20,0.00,27.75,29.17,31.88,5.77,29.79,1009.30,2031.41,2383.05,2493.17,2722.40,349.12,315.76,15.33,0000 0000 0000 0000 000000
2013-12-31 00:55:29,0.11,3.20,0.00,27.75,29.17,31.88,5.69,29.79,1009.29,2031.48,2382.78,2493.06,2722.15,350.30,316.83,15.34,0000 0000 0000 0000 000000
2013-12-31 00:56:29,0.14,3.21,0.00,27.77,29.18,31.87,5.73,29.96,1009.29,2031.43,2382.35,2492.98,2722.05,349.57,316.39,15.35,0000 0000 0000 0000 000000
2013-12-31 00:57:29,0.10,3.21,0.00,27.78,29.19,31.90,5.81,29.50,1009.29,2031.25,2382.12,2492.61,2721.86,350.85,316.85,15.35,0000 0000 0000 0000 000000
2013-12-31 00:58:30,0.11,3.21,0.00,27.76,29.20,31.89,5.81,29.96,1009.29,2031.19,2381.99,2492.26,2721.49,349.79,316.69,15.36,0000 0000 0000 0000 000000
2013-12-31 00:59:30,0.15,3.21,0.00,27.75,29.20,31.89,5.79,29.96,1009.29,2031.29,2381.64,2492.09,2721.25,349.43,315.69,15.36,0000 0000 0000 0000 000000
2013-12-31 01:00:30,0.27,3.21,0.00,27.77,29.20,31.87,5.71,29.79,1009.29,2031.44,2381.26,2492.03,2721.10,349.45,316.35,15.37,0000 0000 0000 0000 000000
2013-12-31 01:01:30,0.19,3.21,0.00,27.77,29.20,31.90,5.77,29.88,1009.29,2031.35,2381.09,2492.00,2721.03,351.00,317.55,15.37,0000 0000 0000 0000 000000
2013-12-31 01:02:31,0.04,3.21,0.00,27.78,29.20,31.90,5.74,29.88,1009.27,2031.34,2381.00,2491.76,2720.95,349.63,316.72,15.38,0000 0000 0000 0000 000000
2013-12-31 01:03:31,0.15,3.21,0.00,27.77,29.20,31.90,5.78,29.71,1009.25,2031.26,2380.58,2491.36,2720.56,349.59,316.13,15.39,0000 0000 0000 0000 000000
2013-12-31 01:04:31,0.18,3.21,0.00,27.78,29.22,31.90,5.81,29.92,1009.28,2031.17,2380.22,2491.13,2720.20,350.80,317.24,15.39,0000 0000 0000 0000 000000
2013-12-31 01:05:31,0.12,3.21,0.00,27.80,29.22,31.89,5.76,29.75,1009.28,2031.12,2380.07,2491.04,2720.07,349.43,315.98,15.40,0000 0000 0000 0000 000000
2013-12-31 01:06:32,0.05,3.21,0.00,27.80,29.22,31.92,5.85,29.96,1009.24,2031.07,2379.76,2490.93,2720.00,349.12,315.69,15.40,0000 0000 0000 0000 000000
2013-12-31 01:07:32,0.09,3.21,0.00,27.80,29.22,31.91,5.84,29.83,1009.25,2031.07,2379.36,2490.55,2719.71,349.95,316.44,15.41,0000 0000 0000 0000 000000
2013-12-31 01:08:33,0.24,3.21,0.00,27.80,29.22,31.92,5.83,29.79,1009.23,2031.06,2379.13,2490.22,2719.29,350.52,316.96,15.42,0000 0000 0000 0000 000000
2013-12-31 01:09:33,0.22,3.22,0.00,27.80,29.22,31.94,5.68,29.50,1009.27,2031.02,2379.03,2490.08,2719.10,349.89,316.37,15.42,0000 0000 0000 0000 000000
2013-12-31 01:10:33,0.09,3.22,0.00,27.82,29.23,31.91,5.88,29.92,1009.29,2031.03,2378.65,2489.99,2719.02,350.54,317.07,15.43,0000 0000 0000 0000 000000
2013-12-31 01:11:33,0.14,3.22,0.00,27.84,29.24,31.93,5.84,29.96,1009.29,2031.01,2378.25,2489.74,2718.78,350.35,316.99,15.43,0000 0000 0000 0000 000000
2013-12-31 01:12:34,0.22,3.22,0.00,27.84,29.25,31.93,5.58,29.71,1009.27,2031.00,2378.09,2489.37,2718.36,349.44,315.70,15.44,0000 0000 0000 0000 000000
2013-12-31 01:13:34,0.20,3.22,0.00,27.82,29.25,31.93,5.88,29.92,1009.28,2031.03,2378.00,2489.15,2718.15,350.06,316.65,15.45,0000 0000 0000 0000 000000
2013-12-31 01:14:34,0.16,3.22,0.00,27.83,29.25,31.96,5.85,29.71,1009.29,2031.03,2377.56,2489.05,2718.04,350.34,316.78,15.45,0000 0000 0000 0000 000000
2013-12-31 01:15:35,0.13,3.22,0.00,27.83,29.25,31.97,5.81,29.79,1009.29,2031.01,2377.20,2489.00,2717.94,350.06,316.52,15.46,0000 0000 0000 0000 000000
2013-12-31 01:16:35,0.14,3.22,0.00,27.85,29.25,31.93,5.79,29.79,1009.29,2031.02,2377.07,2488.67,2717.51,350.25,316.68,15.46,0000 0000 0000 0000 000000
2013-12-31 01:17:35,0.21,3.22,0.00,27.85,29.26,31.94,5.96,29.88,1009.29,2031.01,2376.87,2488.28,2717.19,349.89,316.35,15.47,0000 0000 0000 0000 000000
2013-12-31 01:18:35,0.23,3.23,0.00,27.88,29.27,31.95,5.90,29.71,1009.29,2031.00,2376.43,2488.11,2717.06,351.05,317.37,15.47,0000 0000 0000 0000 000000
2013-12-31 01:19:36,0.16,3.23,0.00,27.84,29.27,31.93,5.79,29.96,1009.29,2031.00,2376.16,2488.04,2716.92,348.88,316.01,15.48,0000 0000 0000 0000 000000
2013-12-31 01:20:36,0.11,3.23,0.00,27.83,29.27,31.97,5.82,29.88,1009.29,2031.00,2376.01,2487.94,2716.60,350.02,316.49,15.49,0000 0000 0000 0000 000000
2013-12-31 01:21:37,0.15,3.23,0.00,27.84,29.27,31.97,5.82,29.88,1009.29,2031.00,2375.71,2487.57,2716.24,350.38,316.80,15.49,0000 0000 0000 0000 000000
2013-12-31 01:22:37,0.25,3.23,0.00,27.86,29.27,31.99,5.81,29.88,1009.29,2031.00,2375.28,2487.23,2716.09,350.34,316.75,15.50,0000 0000 0000 0000 000000
2013-12-31 01:23:37,0.19,3.23,0.00,27.87,29.28,31.97,5.83,30.13,1009.29,2031.00,2375.08,2487.08,2715.97,350.26,316.66,15.50,0000 0000 0000 0000 000000
2013-12-31 01:24:38,0.12,3.23,0.00,27.89,29.29,31.98,5.78,30.00,1009.29,2031.00,2374.86,2487.01,2715.56,349.25,315.73,15.51,0000 0000 0000 0000 000000
2013-12-31 01:25:38,0.17,3.23,0.00,27.87,29.30,31.99,5.81,29.79,1009.29,2031.00,2374.42,2486.65,2715.24,350.37,316.70,15.52,0000 0000 0000 0000 000000
2013-12-31 01:26:38,0.27,3.23,0.00,27.89,29.30,31.99,5.85,30.00,1009.29,2031.00,2374.15,2486.26,2715.08,349.44,315.90,15.52,0000 0000 0000 0000 000000
2013-12-31 01:27:38,0.19,3.24,0.00,27.89,29.30,32.01,5.63,29.63,1009.28,2031.00,2374.05,2486.09,2715.02,349.20,315.18,15.53,0000 0000 0000 0000 000000
2013-12-31 01:28:39,0.09,3.24,0.00,27.92,29.30,32.00,5.87,29.92,1009.29,2031.00,2373.86,2486.02,2714.80,350.54,316.53,15.53,0000 0000 0000 0000 000000
2013-12-31 01:29:39,0.16,3.24,0.00,27.92,29.31,32.03,5.78,29.58,1009.28,2031.00,2373.39,2485.86,2714.31,350.01,316.39,15.54,0000 0000 0000 0000 000000
2013-12-31 01:30:39,0.22,3.24,0.00,27.89,29.31,32.02,5.84,29.88,1009.22,2031.00,2373.15,2485.50,2714.11,350.00,316.38,15.54,0000 0000 0000 0000 000000
2013-12-31 01:31:40,0.21,3.24,0.00,27.89,29.32,32.02,5.80,29.83,1009.26,2031.00,2373.02,2485.19,2714.03,349.44,316.27,15.55,0000 0000 0000 0000 000000
2013-12-31 01:32:40,0.13,3.24,0.00,27.90,29.32,32.03,5.73,29.92,1009.28,2031.00,2372.68,2485.07,2713.95,349.73,316.18,15.56,0000 0000 0000 0000 000000
2013-12-31 01:33:40,0.15,3.24,0.00,27.89,29.32,32.01,5.77,29.75,1009.29,2031.00,2372.27,2485.02,2713.54,350.02,316.19,15.56,0000 0000 0000 0000 000000
2013-12-31 01:34:40,0.16,3.24,0.00,27.89,29.32,31.98,5.92,29.88,1009.29,2031.00,2372.10,2484.89,2713.21,349.66,315.92,15.57,0000 0000 0000 0000 000000
2013-12-31 01:35:41,0.15,3.24,0.00,27.91,29.33,32.00,5.75,29.79,1009.29,2031.00,2371.99,2484.49,2713.08,349.24,315.91,15.57,0000 0000 0000 0000 000000
2013-12-31 01:36:41,0.19,3.24,0.00,27.90,29.34,32.03,5.84,29.96,1009.29,2031.00,2371.56,2484.17,2713.01,349.87,316.32,15.58,0000 0000 0000 0000 000000
2013-12-31 01:37:41,0.20,3.25,0.00,27.91,29.35,32.02,5.85,30.13,1009.29,2030.98,2371.20,2484.06,2712.84,349.66,316.08,15.59,0000 0000 0000 0000 000000
2013-12-31 01:38:41,0.14,3.25,0.00,27.92,29.35,32.04,5.82,30.08,1009.29,2030.97,2371.03,2483.98,2712.42,350.89,317.18,15.59,0000 0000 0000 0000 000000
2013-12-31 01:39:42,0.12,3.25,0.00,27.90,29.35,32.05,5.80,30.00,1009.29,2030.95,2370.81,2483.69,2712.16,349.48,315.92,15.60,0000 0000 0000 0000 000000
2013-12-31 01:40:42,0.21,3.25,0.00,27.91,29.35,32.02,5.75,29.88,1009.29,2030.95,2370.37,2483.35,2712.05,349.71,316.12,15.60,0000 0000 0000 0000 000000
2013-12-31 01:41:42,0.20,3.25,0.00,27.94,29.35,32.02,5.71,30.17,1009.29,2030.95,2370.14,2483.16,2712.02,348.15,314.68,15.61,0000 0000 0000 0000 000000
2013-12-31 01:42:42,0.10,3.25,0.00,27.92,29.36,32.06,5.77,29.96,1009.29,2030.96,2370.05,2483.05,2711.99,349.87,316.16,15.62,0000 0000 0000 0000 000000
2013-12-31 01:43:43,0.06,3.25,0.00,27.91,29.37,32.06,5.90,30.08,1009.28,2030.97,2369.99,2483.02,2711.94,349.78,316.46,15.62,0000 0000 0000 0000 000000
2013-12-31 01:44:43,0.06,3.25,0.00,27.94,29.37,32.06,5.71,29.92,1009.29,2030.97,2369.86,2483.00,2711.64,348.52,315.44,15.63,0000 0000 0000 0000 000000
2013-12-31 01:45:43,0.11,3.25,0.00,27.97,29.37,32.05,5.81,29.92,1009.29,2030.98,2369.47,2482.98,2711.30,349.79,316.20,15.63,0000 0000 0000 0000 000000
2013-12-31 01:46:43,0.16,3.25,0.00,27.96,29.37,32.06,5.68,29.88,1009.29,2030.97,2369.17,2482.81,2711.12,348.93,315.36,15.64,0000 0000 0000 0000 000000
2013-12-31 01:47:44,0.14,3.25,0.00,27.97,29.38,32.06,5.80,29.75,1009.29,2030.95,2369.06,2482.41,2711.04,350.17,316.60,15.64,0000 0000 0000 0000 000000
2013-12-31 01:48:44,0.15,3.25,0.00,27.96,29.38,32.05,5.89,30.25,1009.29,2030.89,2369.00,2482.15,2710.96,350.61,316.89,15.65,0000 0000 0000 0000 000000
2013-12-31 01:49:44,0.05,3.25,0.00,27.96,29.39,32.04,5.92,29.92,1009.29,2030.82,2368.82,2482.05,2710.79,350.35,316.64,15.66,0000 0000 0000 0000 000000
2013-12-31 01:50:45,0.09,3.25,0.00,27.96,29.40,32.07,5.83,29.63,1009.29,2030.88,2368.36,2482.01,2710.35,350.96,316.67,15.66,0000 0000 0000 0000 000000
2013-12-31 01:51:45,0.19,3.26,0.00,27.97,29.40,32.09,5.73,29.79,1009.29,2030.90,2368.13,2481.97,2710.15,349.51,315.90,15.67,0000 0000 0000 0000 000000
2013-12-31 01:52:45,0.15,3.26,0.00,28.00,29.40,32.09,5.76,29.83,1009.29,2030.89,2368.04,2481.83,2710.05,350.06,316.52,15.67,0000 0000 0000 0000 000000
2013-12-31 01:53:45,0.07,3.26,0.00,27.99,29.40,32.10,5.68,29.63,1009.29,2030.86,2368.00,2481.56,2710.01,350.24,316.52,15.68,0000 0000 0000 0000 000000
2013-12-31 01:54:45,0.10,3.26,0.00,27.98,29.40,32.09,5.68,29.75,1009.29,2030.90,2367.74,2481.24,2709.98,349.37,315.85,15.69,0000 0000 0000 0000 000000
2013-12-31 01:55:46,0.17,3.26,0.00,28.00,29.42,32.10,5.80,29.92,1009.29,2030.81,2367.30,2481.08,2709.62,349.49,315.83,15.69,0000 0000 0000 0000 000000
2013-12-31 01:56:46,0.15,3.26,0.00,28.02,29.42,32.10,5.99,29.88,1009.29,2030.73,2367.11,2481.03,2709.26,351.09,316.70,15.70,0000 0000 0000 0000 000000
2013-12-31 01:57:46,0.06,3.26,0.00,28.02,29.42,32.11,5.84,30.00,1009.29,2030.60,2367.04,2481.00,2709.11,349.93,316.21,15.70,0000 0000 0000 0000 000000
2013-12-31 01:58:47,-0.12,3.26,0.00,28.01,29.42,32.11,5.81,29.83,1009.29,2030.50,2367.01,2480.93,2709.04,350.04,316.32,15.71,0000 0000 0000 0000 000000
2013-12-31 01:59:47,-0.05,3.26,0.00,28.00,29.42,32.10,5.87,29.96,1009.29,2030.49,2366.99,2480.70,2709.01,350.50,316.74,15.72,0000 0000 0000 0000 000000
2013-12-31 02:00:47,0.14,3.26,0.00,28.00,29.42,32.08,5.85,29.83,1009.28,2030.46,2366.68,2480.31,2708.98,349.86,316.17,15.72,0000 0000 0000 0000 000000
2013-12-31 02:01:47,0.16,3.26,0.00,28.00,29.43,32.10,5.78,29.67,1009.29,2030.35,2366.32,2480.12,2708.81,350.41,316.67,15.73,0000 0000 0000 0000 000000
2013-12-31 02:02:47,0.04,3.26,0.00,28.00,29.45,32.12,5.86,29.88,1009.29,2030.26,2366.12,2480.04,2708.39,350.27,316.54,15.73,0000 0000 0000 0000 000000
2013-12-31 02:03:48,0.09,3.26,0.00,28.00,29.45,32.10,5.81,29.75,1009.29,2030.24,2366.04,2480.01,2708.16,350.06,316.34,15.74,0000 0000 0000 0000 000000
2013-12-31 02:04:48,0.01,3.26,0.00,28.01,29.45,32.11,5.87,29.67,1009.28,2030.16,2365.94,2479.99,2708.05,350.56,317.12,15.74,0000 0000 0000 0000 000000
2013-12-31 02:05:48,-0.00,3.26,0.00,28.02,29.45,32.09,5.81,29.92,1009.24,2030.11,2365.64,2479.81,2708.02,349.25,315.78,15.75,0000 0000 0000 0000 000000
2013-12-31 02:06:48,0.15,3.26,0.00,28.04,29.45,32.12,5.73,29.71,1009.20,2030.08,2365.24,2479.44,2707.93,350.39,316.03,15.76,0000 0000 0000 0000 000000
2013-12-31 02:07:49,0.16,3.26,0.00,28.05,29.45,32.12,5.52,30.00,1009.27,2030.05,2365.09,2479.18,2707.58,349.21,315.83,15.76,0000 0000 0000 0000 000000
2013-12-31 02:08:49,0.18,3.26,0.00,28.04,29.46,32.13,5.78,29.96,1009.29,2030.13,2365.03,2479.07,2707.28,349.21,315.78,15.77,0000 0000 0000 0000 000000
2013-12-31 02:09:49,0.14,3.27,0.00,28.04,29.47,32.14,5.77,29.88,1009.29,2030.10,2364.90,2479.02,2707.10,349.80,316.39,15.77,0000 0000 0000 0000 000000
2013-12-31 02:10:50,0.05,3.27,0.00,28.03,29.47,32.15,5.74,29.83,1009.29,2030.06,2364.47,2479.01,2707.04,349.96,316.22,15.78,0000 0000 0000 0000 000000
2013-12-31 02:11:50,0.07,3.27,0.00,28.05,29.47,32.14,5.82,29.79,1009.29,2030.05,2364.17,2478.94,2707.01,350.35,316.34,15.79,0000 0000 0000 0000 000000
2013-12-31 02:12:50,0.10,3.27,0.00,28.06,29.47,32.12,5.84,29.75,1009.29,2030.03,2364.06,2478.56,2706.93,350.03,316.77,15.79,0000 0000 0000 0000 000000
2013-12-31 02:13:51,0.16,3.27,0.00,28.06,29.47,32.13,5.79,29.96,1009.29,2030.02,2364.01,2478.24,2706.71,350.21,316.21,15.80,0000 0000 0000 0000 000000
2013-12-31 02:14:51,0.14,3.27,0.00,28.05,29.48,32.15,5.79,29.79,1009.29,2030.04,2363.95,2478.11,2706.49,350.03,315.94,15.80,0000 0000 0000 0000 000000
2013-12-31 02:15:51,0.10,3.27,0.00,28.07,29.49,32.15,5.72,30.17,1009.29,2030.02,2363.63,2478.05,2706.22,348.63,314.98,15.81,0000 0000 0000 0000 000000
2013-12-31 02:16:52,0.14,3.27,0.00,28.07,29.50,32.18,5.88,29.88,1009.29,2030.01,2363.25,2478.01,2706.08,350.06,316.27,15.81,0000 0000 0000 0000 000000
2013-12-31 02:17:52,0.09,3.27,0.00,28.07,29.50,32.17,5.80,29.75,1009.26,2030.01,2363.09,2478.00,2706.03,350.83,316.96,15.82,0000 0000 0000 0000 000000
2013-12-31 02:18:52,0.05,3.27,0.00,28.08,29.50,32.18,5.72,29.75,1009.24,2030.01,2363.03,2477.97,2706.00,349.75,315.96,15.83,0000 0000 0000 0000 000000
2013-12-31 02:19:53,0.03,3.27,0.00,28.10,29.50,32.16,5.91,29.75,1009.12,2030.00,2362.99,2477.89,2705.97,350.29,316.11,15.83,0000 0000 0000 0000 000000
2013-12-31 02:20:53,0.04,3.27,0.00,28.09,29.50,32.19,5.64,29.71,1009.00,2030.00,2362.84,2477.53,2705.79,349.33,315.50,15.84,0000 0000 0000 0000 000000
2013-12-31 02:21:53,0.19,3.27,0.00,28.08,29.51,32.19,5.77,29.63,1008.88,2030.00,2362.51,2477.23,2705.41,350.74,316.74,15.84,0000 0000 0000 0000 000000
2013-12-31 02:22:53,0.25,3.27,0.00,28.10,29.52,32.19,5.84,29.63,1008.84,2030.00,2362.19,2477.08,2705.16,350.71,316.69,15.85,0000 0000 0000 0000 000000
2013-12-31 02:23:53,0.15,3.27,0.00,28.09,29.52,32.22,5.82,29.92,1008.84,2030.00,2362.07,2477.03,2705.05,350.29,316.38,15.86,0000 0000 0000 0000 000000
2013-12-31 02:24:54,0.05,3.28,0.00,28.10,29.52,32.21,5.86,29.79,1008.84,2030.00,2362.02,2477.01,2705.02,349.69,315.37,15.86,0000 0000 0000 0000 000000
2013-12-31 02:25:54,0.01,3.28,0.00,28.09,29.52,32.18,5.78,29.71,1008.84,2030.00,2362.00,2476.99,2705.00,349.72,315.80,15.87,0000 0000 0000 0000 000000
2013-12-31 02:26:54,0.01,3.28,0.00,28.10,29.52,32.19,5.72,29.79,1008.88,2030.00,2361.91,2476.98,2704.95,349.81,315.88,15.87,0000 0000 0000 0000 000000
2013-12-31 02:27:55,0.03,3.28,0.00,28.11,29.52,32.18,5.82,29.88,1008.90,2030.00,2361.55,2476.95,2704.76,349.94,316.02,15.88,0000 0000 0000 0000 000000
2013-12-31 02:28:55,0.13,3.28,0.00,28.10,29.53,32.20,5.82,29.83,1008.95,2030.00,2361.24,2476.75,2704.45,350.02,316.30,15.88,0000 0000 0000 0000 000000
2013-12-31 02:29:55,0.20,3.28,0.00,28.13,29.54,32.20,5.87,29.67,1008.96,2030.00,2361.08,2476.39,2704.19,350.41,316.21,15.89,0000 0000 0000 0000 000000
2013-12-31 02:30:55,0.19,3.28,0.00,28.13,29.55,32.22,5.81,29.88,1009.01,2030.00,2361.03,2476.15,2704.07,350.08,316.00,15.90,0000 0000 0000 0000 000000
2013-12-31 02:31:56,0.11,3.28,0.00,28.12,29.55,32.22,5.74,29.71,1009.03,2030.00,2361.00,2476.05,2704.03,349.94,315.93,15.90,0000 0000 0000 0000 000000
2013-12-31 02:32:56,0.04,3.28,0.00,28.12,29.55,32.21,5.83,29.71,1008.96,2030.00,2360.91,2476.02,2704.00,350.03,315.70,15.91,0000 0000 0000 0000 000000
2013-12-31 02:33:56,0.04,3.28,0.00,28.11,29.55,32.22,5.75,29.88,1008.94,2030.00,2360.50,2476.00,2703.89,349.84,315.91,15.91,0000 0000 0000 0000 000000
2013-12-31 02:34:56,0.12,3.28,0.00,28.13,29.55,32.23,5.76,29.71,1009.05,2030.00,2360.19,2475.96,2703.51,349.97,316.06,15.92,0000 0000 0000 0000 000000
2013-12-31 02:35:57,0.15,3.28,0.00,28.13,29.55,32.23,5.82,29.79,1009.00,2030.00,2360.07,2475.83,2703.23,349.73,315.82,15.93,0000 0000 0000 0000 000000